Preview of NWS' New Version of Forecast
This preview is not operational and should not be used for support decisions.

Regional Weather Roundup (RWR)

Issued by National Weather Service (NWS)

                            
000
ASUS45 KCYS 161910
RWRWY 

WYOMING REGIONAL WEATHER ROUNDUP
NATIONAL WEATHER SERVICE CHEYENNE WY
100 PM MDT TUE JUL 16 2019

NOTE:  "FAIR" INDICATES FEW OR NO CLOUDS BELOW 12,000 FEET
WITH NO SIGNIFICANT WEATHER AND/OR OBSTRUCTIONS TO VISIBILITY.

WYZ001-162000-
...YELLOWSTONE NATIONAL PARK...
  
CITY           SKY/WX    TMP DP  RH WIND       PRES   REMARKS
LK YELLOWSTONE   N/A     69  40  34 VRB6      30.17F                  
W YELLOWSTONE  NOT AVBL                                               

$$
WYZ002>013-054>058-071-098>099-162000-
...NORTHERN WYOMING...
  
CITY           SKY/WX    TMP DP  RH WIND       PRES   REMARKS
JACKSON        MOSUNNY   75  52  44 S8        30.09F                  
CODY           MOSUNNY   77  50  38 VRB5      29.99F                  
GREYBULL       SUNNY     81  52  36 SW6       29.92F                  
WORLAND        PTSUNNY   79  53  40 VRB5      29.94F                  
SHERIDAN       CLOUDY    74  59  59 CALM      29.98F                  
BUFFALO        PTSUNNY   70  60  70 N15       30.03F                  
GILLETTE       PTSUNNY   78  58  49 VRB5      29.97S                  
HULETT         FAIR      77  61  57 NE7       29.99F                  
NEWCASTLE      FAIR      81  50  34 S10G17    29.98F                  

$$
WYZ014>020-022>026-101>103-162000-
...CENTRAL WYOMING...
  
CITY           SKY/WX    TMP DP  RH WIND       PRES   REMARKS
BIG PINEY      PTSUNNY   73  43  33 S10G17    30.14F                  
PINEDALE       MOSUNNY   79  30  17 W9        30.14F                  
DUBOIS         FAIR      77  32  19 W9G26     30.12S                  
LANDER         MOSUNNY   80  50  34 VRB3      30.01F                  
RIVERTON       MOSUNNY   79  53  40 MISG      30.00F                  
CASPER         MOSUNNY   89  45  21 SW13G20   29.99F                  
DOUGLAS        SUNNY     88  59  37 SE10      30.00F                  

$$
WYZ021-027>030-104>119-162000-
...SOUTHERN WYOMING...
  
CITY           SKY/WX    TMP DP  RH WIND       PRES   REMARKS
EVANSTON       SUNNY     81  31  16 SW18G26   30.15F                  
KEMMERER       SUNNY     79  36  21 W15       30.16F                  
FORT BRIDGER   NOT AVBL                                               
ROCK SPRINGS   SUNNY     84  24  11 W12G23    30.11F                  
DIXON          FAIR      85  35  16 S23G31    30.14F                  
RAWLINS        MOSUNNY   86  26  11 SW18G31   30.11F                  
SARATOGA       PTSUNNY   86  32  14 SW8G21    30.15F                  
LARAMIE        MOSUNNY   87  29  12 SW21G29   30.15F                  
CHEYENNE       MOSUNNY   82  57  42 S14G21    30.10F                  
TORRINGTON     SUNNY     88  62  41 S13G22    29.95F                  
PINE BLUFFS    FAIR      84  54  34 S10G16    30.05F                  

$$